Weather History for Point Lay, AK

Change the Weather History Date:

Friday, March 1, 2013

  Actual Average Record
Temperature  
Mean Temperature -9 °F -  
Max Temperature -1 °F -4 °F 29 °F (2014)
Min Temperature -17 °F -15 °F -42 °F (2006)
Degree Days  
Heating Degree Days 74    
Moisture  
Dew Point -16 °F    
Average Humidity 79    
Maximum Humidity 84    
Minimum Humidity 70    
Precipitation  
Precipitation 0.00 in - - ()
Sea Level Pressure  
Sea Level Pressure 29.99 in    
Wind  
Wind Speed 17 mph (SE)    
Max Wind Speed 29 mph    
Max Gust Speed 32 mph    
Visibility 9 miles    
Events Snow    
Averages and records for this station are not official NWS values.
T = Trace of Precipitation, MM = Missing Value Source: NWS Daily Summary

Daily Weather History Graph

Daily Weather History Graph

Search for Another Location

Airport:

Trip Planner

Search our weather history database for the weather conditions in past years. The results will help you decide how hot, cold, wet, or windy it might be!

Date:

Astronomy

Mar. 01, 2013 Rise Set
Actual Time 9:15 AM AKST 6:54 PM AKST
Civil Twilight 8:14 AM AKST 7:56 PM AKST
Nautical Twilight 7:04 AM AKST 9:05 PM AKST
Astronomical Twilight 5:51 AM AKST 10:20 PM AKST
Moon 1:08 AM AKST (3/1) 8:24 AM AKST (3/1)
Length of Visible Light 11h 41m
Length of Day
9h 39m
Waning Gibbous, 82% of the Moon is Illuminated
Mar 1
Waning Gibbous
Mar 4
Last Quarter
Mar 11
New
Mar 19
First Quarter
Mar 27
Full

Hourly Weather History & Observations

Time (AKST) Temp. Windchill Dew Point Humidity Pressure Visibility Wind Dir Wind Speed Gust Speed Precip Events Conditions
12:56 AM -13.0 °F -43.0 °F -17.9 °F 79% 29.76 in - East 28.8 mph - 0.00 in   Overcast
1:17 AM -13.0 °F -42.6 °F -18.4 °F 77% 29.75 in 1.8 mi East 27.6 mph - N/A   Haze
1:30 AM -13.0 °F -42.6 °F -18.4 °F 77% 29.76 in 2.0 mi East 27.6 mph - N/A   Haze
1:56 AM -13.0 °F -43.0 °F -17.9 °F 79% 29.78 in 2.0 mi East 28.8 mph 32.2 mph 0.00 in Snow Light Snow
2:21 AM -13.0 °F -41.6 °F -18.4 °F 77% 29.78 in 3.0 mi East 25.3 mph - 0.00 in   Haze
2:56 AM -14.8 °F -41.8 °F -18.4 °F 84% 29.79 in 5.0 mi East 20.7 mph - N/A Snow Light Snow
3:26 AM -14.8 °F -41.8 °F -20.2 °F 77% 29.80 in 7.0 mi East 20.7 mph - 0.00 in Snow Light Snow
3:32 AM -14.8 °F -41.8 °F -20.2 °F 77% 29.80 in 6.0 mi East 20.7 mph - 0.00 in Snow Light Snow
3:56 AM -13.9 °F -40.0 °F -19.8 °F 75% 29.82 in 7.0 mi East 19.6 mph - 0.00 in Snow Light Snow
4:20 AM -14.8 °F -39.8 °F -20.2 °F 77% 29.82 in 5.0 mi East 17.3 mph - 0.00 in Snow Light Snow
4:30 AM -14.8 °F -40.5 °F -20.2 °F 77% 29.82 in 6.0 mi East 18.4 mph - 0.00 in Snow Light Snow
4:56 AM -15.0 °F -38.5 °F -19.8 °F 79% 29.85 in 10.0 mi East 15.0 mph - 0.00 in Snow Light Snow
5:04 AM -14.8 °F -38.3 °F -20.2 °F 77% 29.84 in 10.0 mi East 15.0 mph - 0.00 in   Mostly Cloudy
5:28 AM -14.8 °F -36.6 °F -20.2 °F 77% 29.85 in 10.0 mi East 12.7 mph - 0.00 in   Mostly Cloudy
5:56 AM -14.8 °F -35.6 °F -20.2 °F 77% 29.86 in 10.0 mi East 11.5 mph - N/A Snow Light Snow
6:10 AM -14.8 °F -34.6 °F -18.4 °F 84% 29.87 in 10.0 mi East 10.4 mph - 0.00 in Snow Light Snow
6:20 AM -14.8 °F -34.6 °F -18.4 °F 84% 29.87 in 10.0 mi East 10.4 mph - 0.00 in Snow Light Snow
6:32 AM -13.0 °F -31.3 °F -18.4 °F 77% 29.88 in 10.0 mi East 9.2 mph - 0.00 in   Mostly Cloudy
6:56 AM -13.0 °F -30.0 °F -17.9 °F 79% 29.91 in 10.0 mi East 8.1 mph - 0.00 in   Mostly Cloudy
7:15 AM -11.2 °F - -18.4 °F 70% 29.90 in 10.0 mi Calm Calm - 0.00 in Snow Light Snow
7:56 AM -10.8 °F - -15.9 °F 78% 29.93 in 10.0 mi Calm Calm - 0.00 in Snow Light Snow
8:56 AM -9.9 °F - -15.0 °F 78% 29.96 in 10.0 mi Calm Calm - 0.00 in   Overcast
9:56 AM -8.9 °F - -13.9 °F 79% 29.99 in 10.0 mi Calm Calm - 0.00 in Snow Light Snow
10:56 AM -1.8 °F -21.0 °F -6.0 °F 83% 30.02 in 10.0 mi WSW 13.8 mph - 0.00 in   Overcast
11:56 AM -2.9 °F -22.4 °F -6.9 °F 83% 30.06 in 10.0 mi WSW 13.8 mph - N/A   Overcast
12:56 PM -2.9 °F -19.8 °F -6.9 °F 83% 30.10 in 10.0 mi WSW 10.4 mph - N/A   Mostly Cloudy
1:56 PM -2.9 °F -22.4 °F -8.0 °F 79% 30.13 in 10.0 mi WSW 13.8 mph - N/A   Mostly Cloudy
2:56 PM -4.0 °F -21.2 °F -8.0 °F 83% 30.15 in 10.0 mi WSW 10.4 mph - N/A   Mostly Cloudy
3:56 PM -4.0 °F -22.1 °F -8.9 °F 80% 30.17 in 10.0 mi WSW 11.5 mph - N/A   Mostly Cloudy
4:37 PM -5.8 °F -23.4 °F -9.4 °F 84% 30.17 in 10.0 mi WSW 10.4 mph - N/A   Scattered Clouds
4:56 PM -4.9 °F -21.3 °F -8.9 °F 83% 30.19 in 10.0 mi WSW 9.2 mph - N/A   Clear
5:37 PM -5.8 °F -21.2 °F -9.4 °F 84% 30.19 in 10.0 mi WSW 8.1 mph - N/A   Mostly Cloudy
5:56 PM -4.9 °F -18.8 °F -8.9 °F 83% 30.21 in 10.0 mi WSW 6.9 mph - N/A   Scattered Clouds
6:27 PM -5.8 °F -18.4 °F -9.4 °F 84% 30.20 in 10.0 mi SW 5.8 mph - N/A   Mostly Cloudy
6:56 PM -4.9 °F -17.4 °F -9.9 °F 79% 30.22 in 10.0 mi SW 5.8 mph - N/A   Overcast
7:47 PM -7.6 °F - -13.0 °F 77% 30.22 in 10.0 mi Calm Calm - N/A   Scattered Clouds
7:56 PM -8.0 °F -23.9 °F -13.0 °F 79% 30.24 in 10.0 mi South 8.1 mph - N/A   Mostly Cloudy
8:56 PM -13.0 °F -28.6 °F -18.9 °F 75% 30.25 in 10.0 mi South 6.9 mph - N/A   Scattered Clouds
9:56 PM -15.9 °F - -22.0 °F 74% 30.26 in 10.0 mi Calm Calm - N/A   Clear
10:56 PM -17.0 °F - -22.9 °F 74% 30.27 in 10.0 mi Calm Calm - N/A   Clear
11:56 PM -17.9 °F - -24.0 °F 74% 30.28 in 10.0 mi Calm Calm - N/A   Scattered Clouds